Location: Finnegan
(51.1333°N, 112.0833°W)
Time: 19:35:00
(UTC+00:00)

Envisat - Pass Details

Date: 05 December 2021
Orbit: 764 x 766 km, 98.2° (Epoch: 26 January)

Event Time Altitude Azimuth Distance (km) Brightness Sun altitude
Rises 01:11:59 0° 222° (SW) 3,224 7.2 -16.2°
Reaches altitude 10° 01:15:46 10° 251° (WSW) 2,306 6.8 -16.8°
Maximum altitude 01:17:53 12° 276° (W) 2,139 6.4 -17.1°
Drops below altitude 10° 01:20:00 10° 301° (WNW) 2,313 6.1 -17.4°
Sets 01:23:50 0° 330° (NNW) 3,247 6.5 -18.0°
